• In Deutschland
  • Länderverzeichnis
  • Für 7 Tage
  • Wassertemperatur
  • Satellitenkarten
  • Wetterkarte
  • Widgets
  • user-avatar
    Anmelden

    Stündliche Wetter Głogów

    Heute, 24 September, Montag

    Zeit Temperatur Niederschläge Wind Luftdruck Luftfeuchtigkeit
    00:00 +8°C° 0.8 mm 7 m/S 748 mmHg 88%
    01:00 +8°C° 0 mm 7 m/S 750 mmHg 86%
    02:00 +8°C° 0.1 mm 7 m/S 751 mmHg 85%
    03:00 +8°C° 0.1 mm 7 m/S 752 mmHg 85%
    04:00 +7°C° 0.1 mm 8 m/S 753 mmHg 85%
    05:00 +7°C° 0 mm 8 m/S 754 mmHg 84%
    06:00 +7°C° 0 mm 8 m/S 755 mmHg 83%
    07:00 +6°C° 0 mm 7 m/S 755 mmHg 82%
    08:00 +8°C° 0.1 mm 7 m/S 756 mmHg 79%
    09:00 +7°C° 0.1 mm 8 m/S 757 mmHg 76%
    10:00 +9°C° 0.1 mm 8 m/S 757 mmHg 72%
    11:00 +10°C° 0.2 mm 9 m/S 757 mmHg 67%
    12:00 +10°C° 0.2 mm 9 m/S 758 mmHg 62%
    13:00 +11°C° 0.2 mm 9 m/S 758 mmHg 57%
    14:00 +11°C° 0.2 mm 8 m/S 758 mmHg 56%
    15:00 +11°C° 0.2 mm 8 m/S 759 mmHg 55%
    16:00 +11°C° 0.2 mm 7 m/S 759 mmHg 55%
    17:00 +10°C° 0.2 mm 6 m/S 760 mmHg 60%
    18:00 +9°C° 0.2 mm 5 m/S 760 mmHg 64%
    19:00 +8°C° 0.2 mm 5 m/S 761 mmHg 69%
    20:00 +7°C° 0.1 mm 5 m/S 761 mmHg 71%
    21:00 +7°C° 0.1 mm 5 m/S 762 mmHg 72%
    22:00 +7°C° 0.1 mm 5 m/S 762 mmHg 73%
    23:00 +6°C° 0 mm 5 m/S 763 mmHg 74%

    Morgen, 25 September, Dienstag

    Zeit Temperatur Niederschläge Wind Luftdruck Luftfeuchtigkeit
    00:00 +6°C° 0 mm 5 m/S 763 mmHg 75%
    01:00 +6°C° 0 mm 5 m/S 764 mmHg 76%
    02:00 +5°C° 0 mm 5 m/S 764 mmHg 77%
    03:00 +5°C° 0 mm 5 m/S 765 mmHg 78%
    04:00 +5°C° 0 mm 5 m/S 765 mmHg 78%
    05:00 +5°C° 0 mm 5 m/S 766 mmHg 78%
    06:00 +5°C° 0 mm 5 m/S 766 mmHg 78%
    07:00 +5°C° 0 mm 5 m/S 767 mmHg 79%
    08:00 +7°C° 0 mm 5 m/S 767 mmHg 72%
    09:00 +8°C° 0 mm 4 m/S 768 mmHg 66%
    10:00 +11°C° 0 mm 4 m/S 768 mmHg 59%
    11:00 +12°C° 0.1 mm 4 m/S 768 mmHg 54%
    12:00 +13°C° 0.1 mm 4 m/S 769 mmHg 49%
    13:00 +14°C° 0.1 mm 4 m/S 769 mmHg 44%
    14:00 +13°C° 0 mm 3 m/S 769 mmHg 45%
    15:00 +13°C° 0 mm 3 m/S 769 mmHg 46%
    16:00 +13°C° 0 mm 3 m/S 769 mmHg 47%
    17:00 +13°C° 0 mm 2 m/S 769 mmHg 51%
    18:00 +10°C° 0 mm 2 m/S 769 mmHg 54%
    19:00 +10°C° 0 mm 1 m/S 770 mmHg 58%
    20:00 +10°C° 0 mm 1 m/S 770 mmHg 60%
    21:00 +9°C° 0 mm 1 m/S 770 mmHg 61%
    22:00 +9°C° 0 mm 1 m/S 771 mmHg 63%
    23:00 +7°C° 0 mm 2 m/S 771 mmHg 65%

    übermorgen, 26 September, Mittwoch

    Zeit Temperatur Niederschläge Wind Luftdruck Luftfeuchtigkeit
    00:00 +7°C° 0 mm 2 m/S 770 mmHg 66%
    01:00 +7°C° 0 mm 2 m/S 770 mmHg 68%
    02:00 +6°C° 0 mm 2 m/S 770 mmHg 69%
    03:00 +6°C° 0 mm 2 m/S 770 mmHg 70%
    04:00 +6°C° 0 mm 2 m/S 770 mmHg 72%
    05:00 +6°C° 0 mm 2 m/S 770 mmHg 71%
    06:00 +6°C° 0 mm 2 m/S 770 mmHg 70%
    07:00 +7°C° 0 mm 2 m/S 770 mmHg 69%
    08:00 +9°C° 0 mm 3 m/S 769 mmHg 61%
    09:00 +11°C° 0 mm 3 m/S 769 mmHg 54%
    10:00 +13°C° 0 mm 4 m/S 769 mmHg 47%
    11:00 +14°C° 0 mm 4 m/S 768 mmHg 44%
    12:00 +15°C° 0 mm 5 m/S 768 mmHg 42%
    13:00 +16°C° 0 mm 5 m/S 767 mmHg 39%
    14:00 +16°C° 0 mm 5 m/S 767 mmHg 41%
    15:00 +15°C° 0 mm 4 m/S 766 mmHg 42%
    16:00 +15°C° 0 mm 4 m/S 766 mmHg 44%
    17:00 +14°C° 0 mm 4 m/S 766 mmHg 47%
    18:00 +13°C° 0 mm 4 m/S 766 mmHg 50%
    19:00 +12°C° 0 mm 3 m/S 765 mmHg 53%
    20:00 +12°C° 0 mm 4 m/S 765 mmHg 53%
    21:00 +12°C° 0 mm 4 m/S 765 mmHg 53%
    22:00 +11°C° 0 mm 4 m/S 765 mmHg 53%
    23:00 +11°C° 0 mm 4 m/S 765 mmHg 53%

    27 September, Donnerstag

    Zeit Temperatur Niederschläge Wind Luftdruck Luftfeuchtigkeit
    00:00 +11°C° 0 mm 4 m/S 765 mmHg 53%
    01:00 +10°C° 0 mm 5 m/S 765 mmHg 54%
    02:00 +10°C° 0 mm 5 m/S 764 mmHg 55%
    03:00 +10°C° 0 mm 5 m/S 764 mmHg 55%
    04:00 +10°C° 0 mm 5 m/S 764 mmHg 56%
    05:00 +10°C° 0 mm 5 m/S 764 mmHg 56%
    06:00 +12°C° 0 mm 5 m/S 764 mmHg 57%
    07:00 +12°C° 0 mm 5 m/S 764 mmHg 58%
    08:00 +13°C° 0 mm 5 m/S 764 mmHg 56%
    09:00 +15°C° 0 mm 5 m/S 764 mmHg 54%
    10:00 +17°C° 0 mm 5 m/S 764 mmHg 52%
    11:00 +19°C° 0 mm 5 m/S 763 mmHg 51%
    12:00 +20°C° 0 mm 5 m/S 763 mmHg 51%
    13:00 +22°C° 0 mm 5 m/S 763 mmHg 51%
    14:00 +22°C° 0 mm 5 m/S 762 mmHg 52%
    15:00 +22°C° 0 mm 4 m/S 762 mmHg 54%
    16:00 +22°C° 0 mm 4 m/S 762 mmHg 55%
    17:00 +20°C° 0 mm 3 m/S 761 mmHg 60%
    18:00 +18°C° 0 mm 3 m/S 761 mmHg 65%
    19:00 +17°C° 0 mm 3 m/S 761 mmHg 70%
    20:00 +16°C° 0 mm 3 m/S 761 mmHg 69%
    21:00 +16°C° 0 mm 3 m/S 761 mmHg 69%
    22:00 +14°C° 0 mm 3 m/S 761 mmHg 69%
    23:00 +14°C° 0 mm 3 m/S 760 mmHg 68%

    28 September, Freitag

    Zeit Temperatur Niederschläge Wind Luftdruck Luftfeuchtigkeit
    00:00 +14°C° 0 mm 3 m/S 760 mmHg 67%
    01:00 +13°C° 0 mm 3 m/S 759 mmHg 66%
    02:00 +13°C° 0 mm 3 m/S 759 mmHg 65%
    03:00 +13°C° 0 mm 3 m/S 759 mmHg 65%
    04:00 +12°C° 0 mm 3 m/S 758 mmHg 65%
    05:00 +12°C° 0 mm 3 m/S 758 mmHg 65%
    06:00 +12°C° 0 mm 3 m/S 758 mmHg 66%
    07:00 +12°C° 0 mm 3 m/S 758 mmHg 66%
    08:00 +14°C° 0 mm 3 m/S 758 mmHg 62%
    09:00 +17°C° 0 mm 3 m/S 758 mmHg 59%
    10:00 +18°C° 0 mm 3 m/S 758 mmHg 55%
    11:00 +19°C° 0 mm 3 m/S 758 mmHg 53%
    12:00 +20°C° 0 mm 3 m/S 758 mmHg 51%
    13:00 +21°C° 0 mm 3 m/S 758 mmHg 50%
    14:00 +20°C° 0 mm 3 m/S 758 mmHg 52%
    15:00 +20°C° 0 mm 3 m/S 757 mmHg 54%
    16:00 +19°C° 0 mm 3 m/S 757 mmHg 57%
    17:00 +18°C° 0 mm 3 m/S 757 mmHg 61%
    18:00 +17°C° 0 mm 3 m/S 758 mmHg 66%
    19:00 +14°C° 0 mm 3 m/S 758 mmHg 70%
    20:00 +15°C° 0.1 mm 2 m/S 758 mmHg 71%
    21:00 +15°C° 0.1 mm 2 m/S 758 mmHg 71%
    22:00 +14°C° 0.1 mm 2 m/S 759 mmHg 72%
    23:00 +14°C° 0.2 mm 2 m/S 759 mmHg 74%

    29 September, Samstag

    Zeit Temperatur Niederschläge Wind Luftdruck Luftfeuchtigkeit
    00:00 +13°C° 0.2 mm 2 m/S 759 mmHg 77%
    01:00 +12°C° 0.2 mm 2 m/S 759 mmHg 80%
    02:00 +12°C° 0 mm 2 m/S 759 mmHg 82%
    03:00 +10°C° 0 mm 2 m/S 759 mmHg 85%
    04:00 +9°C° 0 mm 2 m/S 760 mmHg 87%
    05:00 +9°C° 0 mm 2 m/S 760 mmHg 87%
    06:00 +9°C° 0 mm 2 m/S 760 mmHg 87%
    07:00 +9°C° 0 mm 2 m/S 761 mmHg 86%
    08:00 +10°C° 0 mm 2 m/S 761 mmHg 78%
    09:00 +12°C° 0 mm 2 m/S 762 mmHg 70%
    10:00 +14°C° 0 mm 2 m/S 762 mmHg 62%
    11:00 +14°C° 0 mm 2 m/S 762 mmHg 56%
    12:00 +15°C° 0 mm 2 m/S 762 mmHg 50%
    13:00 +16°C° 0 mm 2 m/S 762 mmHg 44%
    14:00 +16°C° 0 mm 2 m/S 762 mmHg 44%
    15:00 +16°C° 0 mm 2 m/S 762 mmHg 44%
    16:00 +15°C° 0 mm 2 m/S 762 mmHg 43%
    17:00 +14°C° 0 mm 2 m/S 762 mmHg 48%
    18:00 +13°C° 0 mm 2 m/S 762 mmHg 53%
    19:00 +10°C° 0 mm 2 m/S 763 mmHg 58%
    20:00 +10°C° 0 mm 2 m/S 763 mmHg 60%
    21:00 +9°C° 0 mm 2 m/S 763 mmHg 62%
    22:00 +9°C° 0 mm 2 m/S 763 mmHg 64%
    23:00 +8°C° 0 mm 2 m/S 763 mmHg 65%
    Mehr zeigen